This demonstration page uses our WeatherBlox Daily Observations layout. Learn more.

38.88101, -77.10428

Hourly Observations for July 14, 2020

Temp ( °F °C ) Dew Point ( °F °C ) Humidity (%) Winds ( mph kmh ) Pressure ( in mb ) Visibility ( mi km ) Precip ( " mm )
12:52 am 00:52 Partly Cloudy 74 23.3 68 20 82 82 S 5 7 29.93 1013 10 16.0934 0 0
1:52 am 01:52 Mostly Clear 74 23.3 68 20 82 82 SSW 5 7 29.93 1014 10 16.0934 0 0
2:52 am 02:52 Partly Cloudy 73 22.8 68 20 84 84 SW 3 6 29.93 1014 10 16.0934 0 0
3:52 am 03:52 Mostly Cloudy 75 23.9 68 20 79 79 Calm 29.93 1014 10 16.0934 0 0
4:52 am 04:52 Partly Cloudy 74 23.3 69 20.6 85 85 NNW 5 7 29.95 1014 10 16.0934 0 0
5:52 am 05:52 Partly Cloudy 74 23.3 68 20 82 82 NNW 8 13 29.96 1015 10 16.0934 0 0
6:52 am 06:52 Partly Cloudy 74 23.3 64 17.8 71 71 NNW 9 15 29.98 1015 10 16.0934 0 0
7:52 am 07:52 Partly Cloudy 77 25 63 17.2 62 62 N 8 13 30 1016 10 16.0934 0 0
8:52 am 08:52 Mostly Sunny 79 26.1 63 17.2 58 58 NNW 8 13 30.01 1016 10 16.0934 0 0
9:52 am 09:52 Mostly Sunny 82 27.8 62 16.7 51 51 N 6 9 30.01 1016 10 16.0934 0 0
10:52 am 10:52 Mostly Sunny 84 28.9 60 15.6 44 44 N 8 13 30.01 1016 10 16.0934 0 0
11:52 am 11:52 Mostly Sunny 86 30 63 17.2 46 46 N 13 20 30.01 1016 10 16.0934 0 0
12:52 pm 12:52 Mostly Sunny 86 30 60 15.6 42 42 NNW 14 22 30.01 1016 10 16.0934 0 0
1:52 pm 13:52 Mostly Sunny 87 30.6 59 15 39 39 VRB 7 11 30.01 1016 10 16.0934 0 0
2:52 pm 14:52 Mostly Sunny 88 31.1 57 13.9 35 35 NNW 7 11 30.01 1016 10 16.0934 0 0
3:52 pm 15:52 Mostly Sunny 89 31.7 55 12.8 31 31 NNW 9 15 29.99 1016 10 16.0934 0 0
4:52 pm 16:52 Partly Cloudy 89 31.7 54 12.2 30 30 N 6 9 29.99 1016 10 16.0934 0 0
5:52 pm 17:52 Partly Cloudy 89 31.7 54 12.2 30 30 VRB 6 9 30 1016 10 16.0934 0 0
6:52 pm 18:52 Mostly Cloudy 88 31.1 55 12.8 33 33 NW 12 19 30.02 1017 10 16.0934 0 0
7:52 pm 19:52 Mostly Cloudy 86 30 55 12.8 35 35 NW 7 11 30.03 1017 10 16.0934 0 0
8:52 pm 20:52 Mostly Cloudy 82 27.8 58 14.4 44 44 NNW 6 9 30.05 1018 10 16.0934 0 0
9:52 pm 21:52 Partly Cloudy 83 28.3 58 14.4 43 43 N 3 6 30.06 1018 10 16.0934 0 0
10:52 pm 22:52 Mostly Clear 79 26.1 67 19.4 67 67 ESE 7 11 30.07 1018 10 16.0934 0 0
11:52 pm 23:52 Clear 77 25 66 18.9 69 69 SSW 6 9 30.08 1019 10 16.0934 0 0

Powered by AerisWeather